Martinsville, VA

10:57 AM EDT on July 25, 2017 (GMT -0400)
Blue Ridge

Weather History for KMTV - July, 2013

Change the Weather History Date:

Thursday, July 4, 2013

  Actual Average (KINT) Record (KINT)
Temperature  
Mean Temperature 78 °F -  
Max Temperature 88 °F 84 °F 97 °F (1993)
Min Temperature 69 °F 67 °F 51 °F (1972)
Cooling Degree Days 14    
Growing Degree Days 28 (Base 50)    
Moisture  
Dew Point 71 °F    
Average Humidity 86    
Maximum Humidity 98    
Minimum Humidity 55    
Precipitation  
Precipitation 0.47 in - - ()
Sea Level Pressure  
Sea Level Pressure 30.27 in    
Wind  
Wind Speed 2 mph (South)    
Max Wind Speed 13 mph    
Max Gust Speed 28 mph    
Visibility 9 miles    
Events Rain , Thunderstorm    
Averages and records for this station are not official NWS values.
T = Trace of Precipitation, MM = Missing Value Source: NWS Daily Summary

Daily Weather History Graph

Daily Weather History Graph

Search for Another Location

Airport or City:

Trip Planner

Search our weather history database for the weather conditions in past years. The results will help you decide how hot, cold, wet, or windy it might be!

Date:

Astronomy

Jul. 04, 2013 Rise Set
Actual Time 6:06 AM EDT 8:42 PM EDT
Civil Twilight 5:36 AM EDT 9:12 PM EDT
Nautical Twilight 4:58 AM EDT 9:50 PM EDT
Astronomical Twilight 4:16 AM EDT 10:32 PM EDT
Moon 3:20 AM EDT (7/4) 5:46 PM EDT (7/4)
Length of Visible Light 15h 36m
Length of Day
14h 35m
Waning Crescent, 11% of the Moon is Illuminated
Jul 4
Waning Crescent
Jul 8
New
Jul 15
First Quarter
Jul 22
Full
Jul 29
Last Quarter

Hourly Weather History & Observations

Time (EDT) Temp. Heat Index Dew Point Humidity Pressure Visibility Wind Dir Wind Speed Gust Speed Precip Events Conditions
12:15 AM 73.0 °F - 71.8 °F 96% 30.27 in 10.0 mi Calm Calm - N/A   Overcast
12:35 AM 73.6 °F - 72.1 °F 95% 30.27 in 10.0 mi Calm Calm - N/A   Overcast
12:55 AM 73.6 °F - 72.3 °F 96% 30.27 in 10.0 mi South 4.6 mph - N/A   Overcast
1:15 AM 73.8 °F - 72.1 °F 95% 30.28 in 10.0 mi South 3.5 mph - N/A   Overcast
1:35 AM 73.4 °F - 71.6 °F 94% 30.28 in 10.0 mi Calm Calm - N/A   Overcast
1:55 AM 73.4 °F - 71.6 °F 94% 30.27 in 10.0 mi Calm Calm - N/A   Overcast
2:15 AM 73.0 °F - 71.6 °F 95% 30.27 in 10.0 mi Calm Calm - N/A   Overcast
2:35 AM 73.0 °F - 71.6 °F 95% 30.27 in 10.0 mi Calm Calm - N/A   Overcast
2:55 AM 73.4 °F - 71.2 °F 93% 30.27 in 10.0 mi SSE 3.5 mph - N/A   Overcast
3:15 AM 73.0 °F - 71.1 °F 93% 30.26 in 10.0 mi Calm Calm - N/A   Overcast
3:35 AM 73.0 °F - 71.2 °F 94% 30.26 in 10.0 mi Calm Calm - N/A   Overcast
3:55 AM 73.0 °F - 71.2 °F 94% 30.26 in 10.0 mi South 3.5 mph - N/A   Overcast
4:15 AM 73.0 °F - 71.2 °F 94% 30.26 in 10.0 mi Calm Calm - N/A   Overcast
4:35 AM 73.0 °F - 71.2 °F 94% 30.26 in 10.0 mi SSE 3.5 mph - N/A   Overcast
4:55 AM 72.5 °F - 70.9 °F 95% 30.27 in 10.0 mi Calm Calm - N/A   Overcast
5:15 AM 72.1 °F - 70.7 °F 95% 30.27 in 10.0 mi SSE 3.5 mph - N/A   Overcast
5:35 AM 71.8 °F - 70.3 °F 95% 30.27 in 10.0 mi Calm Calm - N/A   Overcast
5:55 AM 71.8 °F - 70.5 °F 96% 30.27 in 10.0 mi Calm Calm - N/A   Mostly Cloudy
6:15 AM 72.1 °F - 70.7 °F 95% 30.28 in 10.0 mi SSE 3.5 mph - N/A   Overcast
6:35 AM 72.1 °F - 70.7 °F 95% 30.28 in 10.0 mi Calm Calm - N/A   Overcast
6:55 AM 72.7 °F - 71.1 °F 95% 30.28 in 10.0 mi Calm Calm - N/A   Overcast
7:15 AM 73.0 °F - 71.2 °F 94% 30.29 in 10.0 mi Calm Calm - N/A   Overcast
7:35 AM 73.2 °F - 71.2 °F 93% 30.29 in 10.0 mi Calm Calm - N/A   Overcast
7:55 AM 73.6 °F - 71.6 °F 93% 30.30 in 10.0 mi Calm Calm - N/A   Overcast
8:15 AM 73.4 °F - 71.4 °F 93% 30.30 in 7.0 mi Calm Calm - N/A Rain Light Rain
8:35 AM 73.6 °F - 71.6 °F 93% 30.31 in 7.0 mi Calm Calm - N/A Rain Light Rain
8:55 AM 74.8 °F - 72.5 °F 92% 30.31 in 10.0 mi SSE 3.5 mph - N/A   Overcast
9:15 AM 74.8 °F - 72.5 °F 92% 30.31 in 10.0 mi SSE 4.6 mph - N/A Rain Light Rain
9:35 AM 75.0 °F - 72.0 °F 90% 30.31 in 10.0 mi Calm Calm - N/A   Overcast
9:55 AM 76.1 °F - 72.9 °F 90% 30.31 in 10.0 mi Calm Calm - N/A   Mostly Cloudy
10:15 AM 78.6 °F - 72.5 °F 81% 30.30 in 10.0 mi South 4.6 mph - N/A   Overcast
10:35 AM 79.7 °F - 73.2 °F 80% 30.30 in 10.0 mi SSW 4.6 mph - N/A   Mostly Cloudy
10:55 AM 76.6 °F - 71.8 °F 85% 30.31 in 10.0 mi SSE 4.6 mph - N/A Rain Light Rain
11:15 AM 81.0 °F 85.8 °F 73.2 °F 77% 30.31 in 10.0 mi SSE 6.9 mph - N/A Thunderstorm Scattered Clouds
11:35 AM 80.8 °F 84.6 °F 71.1 °F 72% 30.32 in 10.0 mi WSW 3.5 mph - N/A   Mostly Cloudy
11:55 AM 76.6 °F - 70.7 °F 82% 30.31 in 10.0 mi West 4.6 mph - N/A   Overcast
12:15 PM 77.0 °F - 72.0 °F 84% 30.31 in 10.0 mi Calm Calm - 0.01 in   Mostly Cloudy
12:35 PM 81.1 °F 85.8 °F 72.7 °F 75% 30.30 in 10.0 mi Calm Calm - 0.01 in   Scattered Clouds
12:55 PM 82.2 °F 87.1 °F 72.1 °F 71% 30.29 in 10.0 mi South 3.5 mph - 0.01 in   Scattered Clouds
1:15 PM 83.1 °F 88.1 °F 71.6 °F 68% 30.28 in 10.0 mi Calm Calm - N/A   Scattered Clouds
1:35 PM 84.4 °F 90.0 °F 71.8 °F 66% 30.28 in 10.0 mi SW 5.8 mph - N/A   Mostly Cloudy
1:55 PM 86.0 °F 91.8 °F 71.4 °F 62% 30.28 in 10.0 mi South 4.6 mph - N/A   Scattered Clouds
2:15 PM 85.1 °F 90.4 °F 71.4 °F 63% 30.27 in 10.0 mi South 4.6 mph - N/A   Mostly Cloudy
2:35 PM 86.5 °F 91.8 °F 70.7 °F 59% 30.26 in 10.0 mi Calm Calm - N/A   Scattered Clouds
2:55 PM 88.9 °F 94.7 °F 70.9 °F 55% 30.25 in 10.0 mi SSE 6.9 mph - N/A   Scattered Clouds
3:15 PM 84.7 °F 90.4 °F 71.6 °F 65% 30.25 in 10.0 mi South 3.5 mph - N/A   Mostly Cloudy
3:35 PM 86.7 °F 93.3 °F 72.1 °F 62% 30.24 in 10.0 mi SSE 6.9 mph - N/A   Scattered Clouds
3:55 PM 84.7 °F 89.1 °F 70.0 °F 61% 30.24 in 10.0 mi SSE 6.9 mph - N/A Thunderstorm Thunderstorm
4:15 PM 78.4 °F - 73.2 °F 84% 30.24 in 7.0 mi SSW 3.5 mph - N/A Rain , Thunderstorm Light Thunderstorms and Rain
4:35 PM 84.2 °F 89.9 °F 72.0 °F 67% 30.24 in 10.0 mi SE 10.4 mph - N/A Thunderstorm Scattered Clouds
4:55 PM 85.5 °F 91.5 °F 72.0 °F 64% 30.23 in 10.0 mi SSE 5.8 mph - N/A   Clear
5:15 PM 85.1 °F 90.8 °F 71.8 °F 64% 30.23 in 10.0 mi SSE 12.7 mph 17.3 mph N/A   Clear
5:35 PM 84.4 °F 90.0 °F 71.8 °F 66% 30.24 in 10.0 mi SSE 8.1 mph - N/A   Scattered Clouds
5:55 PM 83.7 °F 89.2 °F 72.0 °F 68% 30.24 in 10.0 mi Calm Calm - N/A   Mostly Cloudy
6:15 PM 80.4 °F 83.2 °F 68.7 °F 67% 30.26 in 3.0 mi SW 12.7 mph 27.6 mph 0.11 in Rain , Thunderstorm Heavy Thunderstorms and Rain
6:35 PM 70.5 °F - 67.6 °F 91% 30.26 in 10.0 mi Calm Calm - 0.23 in Rain , Thunderstorm Light Thunderstorms and Rain
6:55 PM 71.8 °F - 69.1 °F 91% 30.25 in 10.0 mi Calm Calm - 0.23 in Thunderstorm Mostly Cloudy
7:15 PM 73.0 °F - 69.3 °F 88% 30.26 in 10.0 mi Calm Calm - N/A Thunderstorm Mostly Cloudy
7:35 PM 72.9 °F - 70.5 °F 92% 30.26 in 10.0 mi Calm Calm - N/A   Mostly Cloudy
7:55 PM 72.5 °F - 70.7 °F 94% 30.26 in 10.0 mi Calm Calm - N/A   Mostly Cloudy
8:15 PM 72.1 °F - 70.7 °F 95% 30.28 in 1.8 mi SSE 5.8 mph - 0.08 in Rain Heavy Rain
8:35 PM 72.3 °F - 69.8 °F 92% 30.27 in 4.0 mi Calm Calm - 0.21 in Rain Rain
8:55 PM 71.2 °F - 69.4 °F 94% 30.26 in 10.0 mi Calm Calm - 0.22 in Rain Light Rain
9:15 PM 70.7 °F - 69.3 °F 95% 30.26 in 10.0 mi Calm Calm - N/A   Scattered Clouds
9:35 PM 70.2 °F - 69.3 °F 97% 30.27 in 10.0 mi Calm Calm - N/A   Scattered Clouds
9:55 PM 70.0 °F - 69.1 °F 97% 30.27 in 7.0 mi Calm Calm - 0.01 in   Mostly Cloudy
10:15 PM 69.8 °F - 68.9 °F 97% 30.28 in 7.0 mi Calm Calm - N/A   Scattered Clouds
10:35 PM 70.0 °F - 69.3 °F 98% 30.28 in 7.0 mi Calm Calm - N/A   Mostly Cloudy
10:55 PM 70.0 °F - 69.1 °F 97% 30.28 in 7.0 mi Calm Calm - N/A   Mostly Cloudy
11:15 PM 70.0 °F - 69.1 °F 97% 30.28 in 7.0 mi Calm Calm - N/A   Scattered Clouds
11:35 PM 69.8 °F - 68.9 °F 97% 30.28 in 0.8 mi Calm Calm - N/A   Overcast
11:55 PM 69.1 °F - 68.2 °F 97% 30.28 in 1.2 mi Calm Calm - N/A   Mostly Cloudy